This demonstration page uses our WeatherBlox Daily Observations layout. Learn more.

Left ArrowRight Arrow

Hourly Observations for January 25, 2022

Temp ( °F °C ) Dew Point ( °F °C ) Humidity (%) Winds ( mph kmh ) Pressure ( in mb ) Visibility ( mi km ) Precip ( " mm )
12:52 am 00:52 Clear 9 -12.8 1 -17.2 70 70 N 6 9 30.31 1026 10 16 0.00 0.00
1:52 am 01:52 Clear 8 -13.3 0 -17.8 69 69 N 5 7 30.33 1027 10 16 0.00 0.00
2:52 am 02:52 Clear 7 -13.9 0 -17.8 73 73 NNW 6 9 30.35 1028 10 16 0.00 0.00
3:52 am 03:52 Clear 6 -14.4 0 -17.8 76 76 N 6 9 30.36 1028 10 16 0.00 0.00
4:52 am 04:52 Mostly Clear 5 -15 0 -17.8 79 79 N 8 13 30.37 1029 10 16 0.00 0.00
5:52 am 05:52 Mostly Clear 4 -15.6 -1 -18.3 80 80 N 6 9 30.41 1030 10 16 0.00 0.00
6:52 am 06:52 Mostly Clear 4 -15.6 -2 -18.9 76 76 N 8 13 30.43 1031 10 16 0.00 0.00
7:52 am 07:52 Partly Cloudy 3 -16.1 -2 -18.9 79 79 N 6 9 30.45 1031 10 16 0.00 0.00
8:52 am 08:52 Partly Cloudy 7 -13.9 -1 -18.3 70 70 NNW 7 11 30.49 1032 10 16 0.00 0.00
9:52 am 09:52 Mostly Cloudy 9 -12.8 0 -17.8 66 66 N 12 19 30.50 1033 10 16 0.00 0.00
10:52 am 10:52 Mostly Cloudy 11 -11.7 0 -17.8 61 61 N 12 19 30.51 1033 10 16 0.00 0.00
11:52 am 11:52 Partly Cloudy 13 -10.6 0 -17.8 56 56 NNW 13 20 30.50 1033 10 16 0.00 0.00
12:52 pm 12:52 Partly Cloudy 16 -8.9 -1 -18.3 47 47 N 9 15 30.49 1033 10 16 0.00 0.00
1:52 pm 13:52 Partly Cloudy 19 -7.2 1 -17.2 45 45 NNW 15 24 30.49 1033 10 16 0.00 0.00
2:52 pm 14:52 Mostly Cloudy 20 -6.7 0 -17.8 41 41 NNW 12 19 30.49 1033 10 16 0.00 0.00
3:52 pm 15:52 Mostly Cloudy 20 -6.7 0 -17.8 41 41 NNW 9 15 30.51 1033 10 16 0.00 0.00
4:52 pm 16:52 Mostly Sunny 19 -7.2 -1 -18.3 41 41 N 8 13 30.52 1034 10 16 0.00 0.00
5:52 pm 17:52 Mostly Clear 15 -9.4 0 -17.8 51 51 NNE 7 11 30.53 1034 10 16 0.00 0.00
6:52 pm 18:52 Clear 13 -10.6 -1 -18.3 54 54 N 6 9 30.56 1035 10 16 0.00 0.00
7:52 pm 19:52 Clear 11 -11.7 -1 -18.3 58 58 N 6 9 30.58 1036 10 16 0.00 0.00
8:52 pm 20:52 Clear 9 -12.8 -1 -18.3 64 64 N 7 11 30.58 1036 10 16 0.00 0.00
9:52 pm 21:52 Clear 10 -12.2 -1 -18.3 61 61 Calm 30.57 1035 10 16 0.00 0.00
10:52 pm 22:52 Clear 10 -12.2 -1 -18.3 61 61 Calm 30.57 1035 10 16 0.00 0.00
11:52 pm 23:52 Clear 7 -13.9 -1 -18.3 70 70 E 3 6 30.57 1035 10 16 0.00 0.00

Powered by AerisWeather